| time (UTC) | temp F | wind direction | speed knots | gust knots | rain 1hr in | rain 24hr in | rain mn in | humidity % | barometer mb |
| 20260506091002 | 51 | 213 | 0.0 | 0.0 | 0.00 | 0.00 | 0.00 | 98 | 1009.2 |
| 20260506090002 | 51 | 214 | 0.0 | 0.0 | 0.00 | 0.00 | 0.00 | 98 | 1009.3 |
| 20260506085002 | 50 | 213 | 0.0 | 0.0 | 0.00 | 0.00 | 0.00 | 98 | 1009.1 |
| 20260506083002 | 50 | 205 | 0.0 | 0.0 | 0.00 | 0.00 | 0.00 | 97 | 1009.3 |
| 20260506081003 | 51 | 229 | 0.0 | 0.0 | 0.00 | 0.00 | 0.00 | 97 | 1009.6 |
| 20260506072001 | 50 | 217 | 0.0 | 0.0 | 0.00 | 0.00 | 0.00 | 97 | 1009.4 |
| 20260506071003 | 50 | 212 | 0.0 | 0.0 | 0.00 | 0.00 | 0.00 | 97 | 1009.3 |
| 20260506062003 | 51 | 210 | 0.0 | 0.0 | 0.00 | 0.00 | 0.13 | 97 | 1009.0 |
| 20260506061002 | 51 | 226 | 0.0 | 0.0 | 0.00 | 0.00 | 0.13 | 97 | 1008.5 |
| 20260506051002 | 51 | 216 | 0.0 | 0.0 | 0.00 | 0.00 | 0.13 | 95 | 1008.4 |
| 20260506045002 | 52 | 222 | 0.0 | 0.0 | 0.00 | 0.00 | 0.13 | 94 | 1008.2 |
| 20260506044002 | 52 | 214 | 0.0 | 0.0 | 0.00 | 0.00 | 0.13 | 93 | 1008.1 |
| 20260506043003 | 52 | 217 | 0.0 | 0.0 | 0.00 | 0.00 | 0.13 | 93 | 1007.9 |
| 20260506042001 | 53 | 222 | 0.0 | 0.0 | 0.00 | 0.00 | 0.13 | 92 | 1007.8 |
| 20260506041003 | 53 | 218 | 0.0 | 0.0 | 0.00 | 0.00 | 0.13 | 91 | 1007.7 |
| 20260506040002 | 54 | 215 | 0.0 | 0.0 | 0.00 | 0.00 | 0.13 | 90 | 1007.5 |
| 20260506035002 | 54 | 222 | 0.0 | 0.0 | 0.00 | 0.00 | 0.13 | 88 | 1007.4 |
| 20260506034003 | 54 | 217 | 0.0 | 0.0 | 0.00 | 0.00 | 0.13 | 89 | 1007.2 |
| 20260506033002 | 55 | 220 | 0.0 | 0.0 | 0.00 | 0.00 | 0.13 | 88 | 1006.9 |
| 20260506032001 | 55 | 218 | 0.0 | 0.0 | 0.00 | 0.00 | 0.13 | 87 | 1006.8 |
| 20260506031003 | 56 | 216 | 0.0 | 0.0 | 0.00 | 0.00 | 0.13 | 86 | 1007.0 |
| 20260506030002 | 56 | 218 | 0.0 | 0.0 | 0.00 | 0.00 | 0.13 | 85 | 1006.8 |
| 20260506025002 | 56 | 227 | 0.0 | 0.0 | 0.00 | 0.00 | 0.13 | 85 | 1006.8 |
| 20260506024003 | 57 | 219 | 0.9 | 1.7 | 0.00 | 0.00 | 0.13 | 84 | 1006.8 |
| 20260506023003 | 57 | 218 | 0.0 | 0.0 | 0.00 | 0.00 | 0.13 | 84 | 1006.8 |
| 20260506022003 | 57 | 214 | 0.0 | 0.0 | 0.00 | 0.00 | 0.13 | 83 | 1006.7 |
| 20260506021004 | 57 | 241 | 0.0 | 0.0 | 0.00 | 0.00 | 0.13 | 83 | 1006.7 |
| 20260506020002 | 58 | 213 | 0.0 | 0.0 | 0.00 | 0.00 | 0.13 | 82 | 1006.6 |
| 20260506015002 | 58 | 216 | 0.0 | 0.0 | 0.00 | 0.00 | 0.13 | 82 | 1006.5 |
| 20260506014002 | 57 | 214 | 0.0 | 0.0 | 0.00 | 0.00 | 0.13 | 81 | 1006.6 |
| 20260506013002 | 58 | 214 | 0.0 | 0.0 | 0.00 | 0.00 | 0.13 | 81 | 1006.6 |
| 20260506012003 | 58 | 213 | 0.0 | 0.0 | 0.00 | 0.00 | 0.13 | 81 | 1006.6 |
| 20260506011002 | 58 | 217 | 0.0 | 0.0 | 0.00 | 0.00 | 0.13 | 80 | 1006.6 |
| 20260506010002 | 58 | 211 | 0.0 | 0.0 | 0.00 | 0.00 | 0.13 | 80 | 1006.5 |
| 20260506004002 | 57 | 213 | 0.0 | 0.0 | 0.00 | 0.00 | 0.13 | 80 | 1006.7 |
| 20260506003002 | 58 | 214 | 0.9 | 1.7 | 0.00 | 0.00 | 0.13 | 80 | 1006.5 |
| 20260506002002 | 58 | 212 | 0.0 | 0.0 | 0.00 | 0.00 | 0.13 | 81 | 1006.7 |
| 20260506001003 | 58 | 211 | 0.0 | 0.0 | 0.00 | 0.00 | 0.13 | 80 | 1006.6 |
| 20260506000002 | 58 | 214 | 0.0 | 0.0 | 0.00 | 0.00 | 0.13 | 80 | 1006.4 |
| 20260505235002 | 57 | 216 | 0.9 | 1.7 | 0.00 | 0.00 | 0.13 | 81 | 1006.3 |
| 20260505233002 | 57 | 229 | 0.0 | 0.0 | 0.00 | 0.00 | 0.13 | 82 | 1006.3 |
| 20260505232003 | 58 | 216 | 0.0 | 0.0 | 0.00 | 0.00 | 0.13 | 81 | 1006.2 |
| 20260505231003 | 58 | 247 | 1.7 | 2.6 | 0.00 | 0.00 | 0.13 | 80 | 1006.1 |
| 20260505224002 | 58 | 210 | 0.9 | 1.7 | 0.00 | 0.00 | 0.13 | 80 | 1006.2 |
| 20260505223003 | 58 | 246 | 1.7 | 2.6 | 0.00 | 0.00 | 0.13 | 81 | 1006.1 |
| 20260505221003 | 58 | 271 | 2.6 | 3.5 | 0.00 | 0.00 | 0.13 | 80 | 1006.2 |
| 20260505220002 | 58 | 207 | 0.0 | 0.0 | 0.00 | 0.00 | 0.13 | 80 | 1006.2 |
| 20260505215002 | 58 | 218 | 0.9 | 1.7 | 0.00 | 0.00 | 0.13 | 78 | 1006.2 |
| 20260505214003 | 59 | 214 | 0.0 | 0.0 | 0.00 | 0.00 | 0.13 | 78 | 1006.4 |
| 20260505213002 | 59 | 230 | 0.9 | 1.7 | 0.00 | 0.00 | 0.13 | 78 | 1006.5 |
| 20260505212003 | 59 | 220 | 0.0 | 0.0 | 0.00 | 0.00 | 0.13 | 77 | 1006.3 |
| 20260505205002 | 59 | 223 | 2.6 | 2.6 | 0.00 | 0.00 | 0.13 | 78 | 1006.3 |
| 20260505204001 | 59 | 239 | 2.6 | 3.5 | 0.00 | 0.00 | 0.13 | 77 | 1006.4 |
| 20260505203003 | 60 | 248 | 1.7 | 2.6 | 0.00 | 0.00 | 0.13 | 74 | 1006.2 |
| 20260505202001 | 60 | 220 | 0.9 | 1.7 | 0.00 | 0.00 | 0.13 | 75 | 1006.1 |
| 20260505201002 | 60 | 219 | 0.9 | 1.7 | 0.00 | 0.00 | 0.13 | 74 | 1006.2 |
| 20260505200002 | 59 | 215 | 0.0 | 0.0 | 0.00 | 0.00 | 0.13 | 75 | 1006.5 |
| 20260505195002 | 59 | 226 | 1.7 | 1.7 | 0.00 | 0.00 | 0.13 | 77 | 1006.5 |
| 20260505194002 | 58 | 219 | 0.9 | 1.7 | 0.00 | 0.00 | 0.13 | 80 | 1006.4 |
| 20260505193002 | 58 | 236 | 1.7 | 2.6 | 0.00 | 0.00 | 0.13 | 81 | 1006.5 |
| 20260505192003 | 59 | 216 | 0.9 | 1.7 | 0.00 | 0.00 | 0.13 | 79 | 1006.5 |
| 20260505191002 | 58 | 214 | 0.9 | 1.7 | 0.00 | 0.00 | 0.13 | 80 | 1006.1 |
| 20260505190003 | 58 | 203 | 0.9 | 1.7 | 0.00 | 0.00 | 0.13 | 81 | 1006.2 |
| 20260505185002 | 59 | 214 | 0.0 | 0.0 | 0.00 | 0.00 | 0.13 | 80 | 1006.3 |
| 20260505183002 | 55 | 211 | 0.0 | 0.0 | 0.00 | 0.00 | 0.13 | 87 | 1006.2 |
| 20260505182002 | 55 | 251 | 1.7 | 2.6 | 0.00 | 0.00 | 0.13 | 86 | 1006.4 |
| 20260505181002 | 55 | 268 | 1.7 | 2.6 | 0.00 | 0.00 | 0.13 | 85 | 1006.3 |
| 20260505180002 | 57 | 291 | 0.9 | 2.6 | 0.00 | 0.00 | 0.13 | 85 | 1005.8 |
| 20260505175003 | 55 | 220 | 0.0 | 0.0 | 0.00 | 0.00 | 0.13 | 88 | 1006.0 |
| 20260505174002 | 55 | 211 | 0.9 | 1.7 | 0.00 | 0.00 | 0.13 | 87 | 1006.0 |
| 20260505173002 | 54 | 275 | 2.6 | 3.5 | 0.00 | 0.00 | 0.13 | 87 | 1006.0 |
| 20260505172002 | 54 | 197 | 0.9 | 1.7 | 0.00 | 0.00 | 0.13 | 91 | 1005.9 |
| 20260505171003 | 53 | 217 | 0.0 | 0.0 | 0.00 | 0.00 | 0.13 | 92 | 1005.7 |
| 20260505170002 | 53 | 207 | 0.0 | 0.0 | 0.00 | 0.00 | 0.13 | 92 | 1005.7 |
| 20260505165002 | 51 | 272 | 1.7 | 2.6 | 0.00 | 0.00 | 0.13 | 94 | 1005.8 |
| 20260505164003 | 51 | 217 | 0.0 | 0.0 | 0.00 | 0.00 | 0.13 | 96 | 1005.8 |
| 20260505163002 | 50 | 217 | 0.0 | 0.0 | 0.00 | 0.00 | 0.13 | 98 | 1005.8 |
| 20260505162002 | 50 | 216 | 0.0 | 0.0 | 0.00 | 0.00 | 0.13 | 98 | 1005.8 |
| 20260505161003 | 50 | 221 | 0.0 | 0.0 | 0.00 | 0.00 | 0.13 | 98 | 1005.6 |
| 20260505153003 | 49 | 253 | 0.0 | 0.0 | 0.00 | 0.00 | 0.13 | 98 | 1005.4 |
| 20260505152002 | 49 | 216 | 0.0 | 0.0 | 0.00 | 0.00 | 0.13 | 98 | 1005.7 |
| 20260505151002 | 49 | 216 | 0.0 | 0.0 | 0.00 | 0.00 | 0.13 | 99 | 1005.5 |
| 20260505125002 | 49 | 220 | 0.0 | 0.0 | 0.00 | 0.00 | 0.09 | 99 | 1004.9 |
| 20260505124004 | 49 | 305 | 0.9 | 2.6 | 0.04 | 0.00 | 0.09 | 99 | 1004.8 |
| 20260505123002 | 49 | 220 | 0.0 | 0.0 | 0.00 | 0.00 | 0.09 | 99 | 1004.7 |
| 20260505122003 | 49 | 220 | 0.0 | 0.0 | 0.00 | 0.00 | 0.09 | 99 | 1004.8 |
| 20260505121002 | 49 | 223 | 0.0 | 0.0 | 0.00 | 0.00 | 0.07 | 99 | 1004.6 |
| 20260505120003 | 49 | 223 | 0.0 | 0.0 | 0.00 | 0.00 | 0.07 | 99 | 1004.6 |
| 20260505113003 | 49 | 233 | 0.0 | 0.0 | 0.00 | 0.00 | 0.07 | 99 | 1004.6 |
| 20260505112002 | 49 | 232 | 0.0 | 0.0 | 0.00 | 0.00 | 0.07 | 99 | 1004.8 |
| 20260505111002 | 49 | 217 | 0.0 | 0.0 | 0.00 | 0.00 | 0.07 | 99 | 1005.1 |
| 20260505102002 | 49 | 214 | 0.0 | 0.0 | 0.00 | 0.00 | 0.07 | 99 | 1005.1 |
| 20260505101002 | 49 | 211 | 0.0 | 0.0 | 0.00 | 0.00 | 0.07 | 99 | 1005.0 |
| 20260505095002 | 49 | 214 | 0.0 | 0.0 | 0.04 | 0.00 | 0.07 | 99 | 1004.8 |
| 20260505093003 | 49 | 213 | 0.0 | 0.0 | 0.00 | 0.00 | 0.07 | 98 | 1005.5 |